Terminal Aerodrome Forecast
Issued by NWS

Home | Current Version | Previous Version | Graphics & Text | Print | Product List | Glossary On
Versions: 1 2 3 4 5 6 7 8 9 10 11 12 13 14 15 16
000
FTUS42 KMHX 270500
TAFPGV
TAF
KPGV 270534Z 2706/2806 33010G20KT P6SM OVC015
     FM271000 33010G18KT P6SM -SN SCT010 OVC025
     FM271900 33010KT P6SM OVC035
     FM272000 34005KT P6SM SCT040
      AMD LTD TO CLD VIS AND WIND=

USA.gov is the U.S. government's official web portal to all federal, state and local government web resources and services.